Time,TemperatureF,DewpointF,PressureIn,WindDirection,WindDirectionDegrees,WindSpeedMPH,WindSpeedGustMPH,Humidity,HourlyPrecipIn,Conditions,Clouds,dailyrainin,SoftwareType,DateUTC
2013-05-31 09:58:00,77.2,62.3,30.15,SE,129,0.0,0.0,60,-99.99,,,-99.99,VWS V14.01,2013-05-31 13:58:00,
2013-05-31 10:03:00,77.5,62.1,30.15,SE,129,0.0,0.0,59,-99.99,,,-99.99,VWS V14.01,2013-05-31 14:03:00,
2013-05-31 10:08:00,77.8,62.2,30.15,SE,129,0.0,0.0,59,-99.99,,,-99.99,VWS V14.01,2013-05-31 14:08:00,
2013-05-31 10:13:00,77.9,61.8,30.15,SE,143,0.0,0.0,58,-99.99,,,-99.99,VWS V14.01,2013-05-31 14:13:00,
2013-05-31 10:18:00,78.3,61.9,30.15,SE,143,0.0,0.0,57,-99.99,,,-99.99,VWS V14.01,2013-05-31 14:18:00,
2013-05-31 10:23:00,78.5,62.1,30.15,ESE,105,0.0,0.0,57,-99.99,,,-99.99,VWS V14.01,2013-05-31 14:23:00,
2013-05-31 10:28:00,78.7,62.5,30.15,ESE,104,2.7,5.9,58,-99.99,,,-99.99,VWS V14.01,2013-05-31 14:28:00,
2013-05-31 10:33:00,78.9,62.1,30.16,ESE,104,0.0,0.0,56,-99.99,,,-99.99,VWS V14.01,2013-05-31 14:33:00,
2013-05-31 10:38:00,79.1,62.2,30.16,ESE,104,0.0,0.0,56,-99.99,,,-99.99,VWS V14.01,2013-05-31 14:38:00,
2013-05-31 10:43:00,79.2,62.2,30.15,ESE,104,0.0,0.0,56,-99.99,,,-99.99,VWS V14.01,2013-05-31 14:43:00,
2013-05-31 10:48:00,79.9,62.4,30.16,ESE,111,0.0,4.5,55,-99.99,,,-99.99,VWS V14.01,2013-05-31 14:48:00,
2013-05-31 10:53:00,80.3,62.2,30.16,SE,129,0.0,0.0,54,-99.99,,,-99.99,VWS V14.01,2013-05-31 14:53:00,
2013-05-31 10:58:00,80.7,62.5,30.16,ESE,120,3.4,5.0,54,-99.99,,,-99.99,VWS V14.01,2013-05-31 14:58:00,
2013-05-31 11:03:00,81.0,62.1,30.16,ENE,69,0.0,0.0,53,-99.99,,,-99.99,VWS V14.01,2013-05-31 15:03:00,
2013-05-31 11:08:00,81.0,62.2,30.16,ENE,69,0.0,0.0,53,-99.99,,,-99.99,VWS V14.01,2013-05-31 15:08:00,
2013-05-31 11:13:00,81.1,62.3,30.15,ENE,69,0.0,0.0,53,-99.99,,,-99.99,VWS V14.01,2013-05-31 15:13:00,
2013-05-31 11:18:00,81.2,62.3,30.16,ENE,69,0.0,0.0,53,-99.99,,,-99.99,VWS V14.01,2013-05-31 15:18:00,
2013-05-31 11:23:00,81.3,62.2,30.16,ENE,69,0.0,0.0,52,-99.99,,,-99.99,VWS V14.01,2013-05-31 15:23:00,
2013-05-31 11:28:00,81.5,61.8,30.16,ENE,69,0.0,0.0,51,-99.99,,,-99.99,VWS V14.01,2013-05-31 15:28:00,
2013-05-31 11:33:00,81.7,62.1,30.16,ENE,69,0.0,0.0,52,-99.99,,,-99.99,VWS V14.01,2013-05-31 15:33:00,
2013-05-31 11:38:00,81.8,60.3,30.16,WSW,255,0.0,3.1,48,-99.99,,,-99.99,VWS V14.01,2013-05-31 15:38:00,
2013-05-31 11:43:00,82.2,59.4,30.16,NW,318,4.7,4.7,46,-99.99,,,-99.99,VWS V14.01,2013-05-31 15:43:00,
2013-05-31 11:48:00,83.0,59.9,30.16,West,262,0.0,0.0,46,-99.99,,,-99.99,VWS V14.01,2013-05-31 15:48:00,
2013-05-31 11:53:00,83.8,60.3,30.16,West,262,0.0,0.0,45,-99.99,,,-99.99,VWS V14.01,2013-05-31 15:53:00,
2013-05-31 11:58:00,84.6,60.6,30.16,ESE,120,0.0,2.7,44,-99.99,,,-99.99,VWS V14.01,2013-05-31 15:58:00,
2013-05-31 12:03:00,85.0,59.5,30.16,West,274,0.0,0.0,42,-99.99,,,-99.99,VWS V14.01,2013-05-31 16:03:00,
2013-05-31 12:08:00,84.8,59.2,30.15,NW,311,6.6,6.6,42,-99.99,,,-99.99,VWS V14.01,2013-05-31 16:08:00,
2013-05-31 12:13:00,84.9,59.5,30.15,NW,323,0.0,0.0,42,-99.99,,,-99.99,VWS V14.01,2013-05-31 16:13:00,
2013-05-31 12:18:00,85.0,59.8,30.15,WNW,292,0.0,0.0,43,-99.99,,,-99.99,VWS V14.01,2013-05-31 16:18:00,
2013-05-31 12:23:00,85.2,59.9,30.15,SW,236,0.0,0.0,42,-99.99,,,-99.99,VWS V14.01,2013-05-31 16:23:00,
2013-05-31 12:28:00,85.8,59.5,30.14,SW,236,0.0,0.0,41,-99.99,,,-99.99,VWS V14.01,2013-05-31 16:28:00,
2013-05-31 12:33:00,86.1,59.9,30.14,North,359,0.0,0.0,41,-99.99,,,-99.99,VWS V14.01,2013-05-31 16:33:00,
2013-05-31 12:38:00,86.3,59.8,30.13,West,274,0.0,0.0,41,-99.99,,,-99.99,VWS V14.01,2013-05-31 16:38:00,
2013-05-31 12:43:00,86.4,60.6,30.13,NNW,347,0.0,0.0,42,-99.99,,,-99.99,VWS V14.01,2013-05-31 16:43:00,
2013-05-31 12:48:00,86.6,60.7,30.13,NW,326,3.4,3.4,42,-99.99,,,-99.99,VWS V14.01,2013-05-31 16:48:00,
2013-05-31 12:53:00,86.8,61.0,30.13,NW,311,5.3,7.5,42,-99.99,,,-99.99,VWS V14.01,2013-05-31 16:53:00,
2013-05-31 12:58:00,86.4,59.7,30.13,NW,304,5.1,6.9,41,-99.99,,,-99.99,VWS V14.01,2013-05-31 16:58:00,
2013-05-31 13:03:00,86.2,60.2,30.13,WNW,285,0.0,0.0,42,-99.99,,,-99.99,VWS V14.01,2013-05-31 17:03:00,
2013-05-31 13:08:00,86.2,60.6,30.13,WNW,302,3.4,5.5,42,-99.99,,,-99.99,VWS V14.01,2013-05-31 17:08:00,
2013-05-31 13:13:00,86.2,60.4,30.13,West,267,0.0,4.4,42,-99.99,,,-99.99,VWS V14.01,2013-05-31 17:13:00,
2013-05-31 13:18:00,86.0,60.2,30.13,WNW,300,0.0,0.0,42,-99.99,,,-99.99,VWS V14.01,2013-05-31 17:18:00,
2013-05-31 13:23:00,86.1,60.1,30.12,WNW,300,0.0,0.0,42,-99.99,,,-99.99,VWS V14.01,2013-05-31 17:23:00,
2013-05-31 13:28:00,86.1,59.5,30.12,NW,319,0.0,0.0,41,-99.99,,,-99.99,VWS V14.01,2013-05-31 17:28:00,
2013-05-31 13:33:00,86.1,59.7,30.12,NW,326,0.0,2.9,41,-99.99,,,-99.99,VWS V14.01,2013-05-31 17:33:00,
2013-05-31 13:38:00,86.0,59.9,30.12,WNW,283,0.0,0.0,41,-99.99,,,-99.99,VWS V14.01,2013-05-31 17:38:00,
2013-05-31 13:43:00,86.1,59.7,30.11,WNW,283,0.0,0.0,41,-99.99,,,-99.99,VWS V14.01,2013-05-31 17:43:00,
2013-05-31 13:48:00,85.8,59.5,30.11,WNW,300,0.0,0.0,41,-99.99,,,-99.99,VWS V14.01,2013-05-31 17:48:00,
2013-05-31 13:53:00,85.6,60.3,30.11,WNW,300,0.0,0.0,43,-99.99,,,-99.99,VWS V14.01,2013-05-31 17:53:00,
2013-05-31 13:58:00,85.6,59.6,30.11,WSW,252,0.0,0.0,42,-99.99,,,-99.99,VWS V14.01,2013-05-31 17:58:00,
2013-05-31 14:03:00,85.8,59.6,30.11,WSW,252,0.0,0.0,41,-99.99,,,-99.99,VWS V14.01,2013-05-31 18:03:00,
2013-05-31 14:08:00,86.1,59.7,30.11,West,264,0.0,0.0,41,-99.99,,,-99.99,VWS V14.01,2013-05-31 18:08:00,
2013-05-31 14:13:00,86.2,59.8,30.11,West,264,0.0,0.0,41,-99.99,,,-99.99,VWS V14.01,2013-05-31 18:13:00,
2013-05-31 14:18:00,86.6,59.9,30.10,West,267,3.0,5.2,41,-99.99,,,-99.99,VWS V14.01,2013-05-31 18:18:00,
2013-05-31 14:23:00,87.0,60.5,30.10,West,266,0.0,0.0,41,-99.99,,,-99.99,VWS V14.01,2013-05-31 18:23:00,
2013-05-31 14:28:00,87.3,59.4,30.10,West,266,0.0,0.0,39,-99.99,,,-99.99,VWS V14.01,2013-05-31 18:28:00,
2013-05-31 14:33:00,87.3,60.2,30.09,SW,236,0.0,0.0,40,-99.99,,,-99.99,VWS V14.01,2013-05-31 18:33:00,
2013-05-31 14:38:00,87.2,60.7,30.09,NW,311,4.7,5.2,41,-99.99,,,-99.99,VWS V14.01,2013-05-31 18:38:00,
2013-05-31 14:43:00,86.9,60.5,30.09,North,359,0.0,0.0,41,-99.99,,,-99.99,VWS V14.01,2013-05-31 18:43:00,
2013-05-31 14:48:00,87.3,61.0,30.09,WNW,294,0.0,0.0,41,-99.99,,,-99.99,VWS V14.01,2013-05-31 18:48:00,
2013-05-31 14:53:00,87.4,59.9,30.09,West,278,0.0,0.0,40,-99.99,,,-99.99,VWS V14.01,2013-05-31 18:53:00,
2013-05-31 14:58:00,87.1,60.3,30.09,NW,314,0.0,0.0,41,-99.99,,,-99.99,VWS V14.01,2013-05-31 18:58:00,
2013-05-31 15:03:00,86.9,60.0,30.08,WNW,285,0.0,0.0,40,-99.99,,,-99.99,VWS V14.01,2013-05-31 19:03:00,
2013-05-31 15:08:00,86.9,60.8,30.08,SSE,162,0.0,0.0,42,-99.99,,,-99.99,VWS V14.01,2013-05-31 19:08:00,
2013-05-31 15:13:00,87.1,59.9,30.08,SSE,162,0.0,0.0,40,-99.99,,,-99.99,VWS V14.01,2013-05-31 19:13:00,
2013-05-31 15:18:00,87.4,60.4,30.08,SSE,162,0.0,0.0,40,-99.99,,,-99.99,VWS V14.01,2013-05-31 19:18:00,
2013-05-31 15:23:00,87.5,60.0,30.07,SSE,162,0.0,0.0,40,-99.99,,,-99.99,VWS V14.01,2013-05-31 19:23:00,
2013-05-31 15:28:00,87.6,58.8,30.07,NW,316,0.0,0.0,38,-99.99,,,-99.99,VWS V14.01,2013-05-31 19:28:00,
2013-05-31 15:33:00,87.9,58.5,30.07,NW,316,0.0,0.0,37,-99.99,,,-99.99,VWS V14.01,2013-05-31 19:33:00,
2013-05-31 15:38:00,87.9,59.2,30.07,WSW,240,0.0,3.5,38,-99.99,,,-99.99,VWS V14.01,2013-05-31 19:38:00,
2013-05-31 15:43:00,88.4,59.0,30.06,WSW,240,0.0,0.0,37,-99.99,,,-99.99,VWS V14.01,2013-05-31 19:43:00,
2013-05-31 15:48:00,88.9,58.0,30.06,SSE,148,2.9,3.4,35,-99.99,,,-99.99,VWS V14.01,2013-05-31 19:48:00,
2013-05-31 15:53:00,88.9,58.4,30.06,East,98,0.0,0.0,36,-99.99,,,-99.99,VWS V14.01,2013-05-31 19:53:00,
2013-05-31 15:58:00,88.8,58.7,30.06,ENE,76,0.0,0.0,36,-99.99,,,-99.99,VWS V14.01,2013-05-31 19:58:00,
2013-05-31 16:03:00,88.8,57.5,30.06,SE,146,0.0,0.0,35,-99.99,,,-99.99,VWS V14.01,2013-05-31 20:03:00,
2013-05-31 16:08:00,88.5,57.2,30.05,ESE,122,0.0,2.6,35,-99.99,,,-99.99,VWS V14.01,2013-05-31 20:08:00,
2013-05-31 16:13:00,88.5,56.5,30.05,SE,139,0.0,0.0,34,-99.99,,,-99.99,VWS V14.01,2013-05-31 20:13:00,
2013-05-31 16:18:00,88.9,56.8,30.05,SE,139,0.0,0.0,34,-99.99,,,-99.99,VWS V14.01,2013-05-31 20:18:00,
2013-05-31 16:23:00,89.0,55.4,30.05,WSW,243,4.8,12.1,32,-99.99,,,-99.99,VWS V14.01,2013-05-31 20:23:00,
2013-05-31 16:28:00,88.9,54.9,30.05,NNW,328,7.4,8.1,32,-99.99,,,-99.99,VWS V14.01,2013-05-31 20:28:00,
2013-05-31 16:33:00,88.9,55.4,30.05,SE,143,4.4,6.5,32,-99.99,,,-99.99,VWS V14.01,2013-05-31 20:33:00,
2013-05-31 16:38:00,88.7,55.2,30.05,WSW,239,0.0,5.4,32,-99.99,,,-99.99,VWS V14.01,2013-05-31 20:38:00,
2013-05-31 16:42:00,88.7,56.6,30.04,West,262,2.7,7.8,34,-99.99,,,-99.99,VWS V14.01,2013-05-31 20:42:00,
2013-05-31 16:47:00,88.6,55.6,30.04,NW,307,0.0,0.0,33,-99.99,,,-99.99,VWS V14.01,2013-05-31 20:47:00,
2013-05-31 16:52:00,88.4,55.7,30.04,SE,132,0.0,0.0,33,-99.99,,,-99.99,VWS V14.01,2013-05-31 20:52:00,
2013-05-31 16:57:00,88.3,55.7,30.04,SE,132,0.0,0.0,33,-99.99,,,-99.99,VWS V14.01,2013-05-31 20:57:00,
2013-05-31 17:02:00,88.1,55.6,30.04,SE,132,0.0,0.0,33,-99.99,,,-99.99,VWS V14.01,2013-05-31 21:02:00,
2013-05-31 17:07:00,87.8,56.4,30.04,NW,308,4.3,6.6,34,-99.99,,,-99.99,VWS V14.01,2013-05-31 21:07:00,
2013-05-31 17:12:00,88.0,56.9,30.04,NW,309,0.0,6.0,35,-99.99,,,-99.99,VWS V14.01,2013-05-31 21:12:00,
2013-05-31 17:17:00,88.3,56.7,30.04,West,266,0.0,6.0,34,-99.99,,,-99.99,VWS V14.01,2013-05-31 21:17:00,
2013-05-31 17:22:00,88.3,58.1,30.04,WSW,243,0.0,0.0,36,-99.99,,,-99.99,VWS V14.01,2013-05-31 21:22:00,
2013-05-31 17:27:00,88.3,58.9,30.04,SW,214,0.0,2.4,37,-99.99,,,-99.99,VWS V14.01,2013-05-31 21:27:00,
2013-05-31 17:32:00,88.2,59.9,30.04,WNW,288,0.0,0.0,39,-99.99,,,-99.99,VWS V14.01,2013-05-31 21:32:00,
2013-05-31 17:37:00,88.1,60.0,30.04,North,356,0.0,0.0,39,-99.99,,,-99.99,VWS V14.01,2013-05-31 21:37:00,
2013-05-31 17:42:00,87.8,60.4,30.04,NW,307,0.0,0.0,40,-99.99,,,-99.99,VWS V14.01,2013-05-31 21:42:00,
2013-05-31 17:47:00,87.6,60.5,30.03,West,280,0.0,0.0,40,-99.99,,,-99.99,VWS V14.01,2013-05-31 21:47:00,
2013-05-31 17:52:00,87.5,60.6,30.03,West,274,0.0,0.0,40,-99.99,,,-99.99,VWS V14.01,2013-05-31 21:52:00,
2013-05-31 17:57:00,87.4,60.1,30.03,West,276,4.5,7.1,40,-99.99,,,-99.99,VWS V14.01,2013-05-31 21:57:00,
2013-05-31 18:02:00,87.3,60.8,30.03,WNW,290,7.1,10.7,41,-99.99,,,-99.99,VWS V14.01,2013-05-31 22:02:00,
2013-05-31 18:07:00,87.2,60.4,30.03,West,277,0.0,0.0,41,-99.99,,,-99.99,VWS V14.01,2013-05-31 22:07:00,
2013-05-31 18:12:00,86.8,60.6,30.04,WSW,253,0.0,5.1,42,-99.99,,,-99.99,VWS V14.01,2013-05-31 22:12:00,
2013-05-31 18:17:00,86.6,61.1,30.04,WNW,301,4.2,4.5,42,-99.99,,,-99.99,VWS V14.01,2013-05-31 22:17:00,
2013-05-31 18:22:00,86.6,61.3,30.04,SW,226,0.0,0.0,43,-99.99,,,-99.99,VWS V14.01,2013-05-31 22:22:00,
2013-05-31 18:27:00,86.3,60.9,30.04,West,276,0.0,0.0,43,-99.99,,,-99.99,VWS V14.01,2013-05-31 22:27:00,
2013-05-31 18:32:00,86.2,61.0,30.04,West,273,0.0,0.0,43,-99.99,,,-99.99,VWS V14.01,2013-05-31 22:32:00,
2013-05-31 18:37:00,86.1,61.1,30.04,WNW,301,0.0,0.0,43,-99.99,,,-99.99,VWS V14.01,2013-05-31 22:37:00,
2013-05-31 18:42:00,86.0,60.9,30.04,WSW,252,0.0,0.0,43,-99.99,,,-99.99,VWS V14.01,2013-05-31 22:42:00,
2013-05-31 18:47:00,85.9,61.5,30.04,NW,318,2.7,4.9,44,-99.99,,,-99.99,VWS V14.01,2013-05-31 22:47:00,
2013-05-31 18:52:00,85.8,61.1,30.03,NW,319,0.0,0.0,44,-99.99,,,-99.99,VWS V14.01,2013-05-31 22:52:00,
2013-05-31 18:57:00,85.7,61.2,30.03,NNW,328,4.7,6.1,44,-99.99,,,-99.99,VWS V14.01,2013-05-31 22:57:00,
2013-05-31 19:02:00,85.4,61.5,30.03,West,267,0.0,0.0,45,-99.99,,,-99.99,VWS V14.01,2013-05-31 23:02:00,
2013-05-31 19:07:00,85.1,61.6,30.04,NW,304,2.9,2.9,45,-99.99,,,-99.99,VWS V14.01,2013-05-31 23:07:00,
2013-05-31 19:12:00,84.8,61.2,30.04,NW,307,0.0,0.0,45,-99.99,,,-99.99,VWS V14.01,2013-05-31 23:12:00,
2013-05-31 19:17:00,84.5,61.3,30.04,NW,307,0.0,0.0,46,-99.99,,,-99.99,VWS V14.01,2013-05-31 23:17:00,
2013-05-31 19:22:00,84.2,61.1,30.04,NW,307,0.0,0.0,46,-99.99,,,-99.99,VWS V14.01,2013-05-31 23:22:00,
2013-05-31 19:27:00,84.0,61.2,30.04,NW,307,0.0,0.0,46,-99.99,,,-99.99,VWS V14.01,2013-05-31 23:27:00,
2013-05-31 19:32:00,83.6,61.2,30.04,NW,307,0.0,0.0,47,-99.99,,,-99.99,VWS V14.01,2013-05-31 23:32:00,
2013-05-31 19:37:00,83.1,61.8,30.04,NW,307,0.0,0.0,49,-99.99,,,-99.99,VWS V14.01,2013-05-31 23:37:00,
2013-05-31 19:42:00,82.8,62.1,30.05,NW,307,0.0,0.0,50,-99.99,,,-99.99,VWS V14.01,2013-05-31 23:42:00,
2013-05-31 19:47:00,82.3,62.8,30.05,NW,307,0.0,0.0,52,-99.99,,,-99.99,VWS V14.01,2013-05-31 23:47:00,
2013-05-31 19:52:00,81.7,62.4,30.05,NW,307,0.0,0.0,52,-99.99,,,-99.99,VWS V14.01,2013-05-31 23:52:00,
2013-05-31 19:57:00,81.2,62.6,30.05,NW,307,0.0,0.0,53,-99.99,,,-99.99,VWS V14.01,2013-05-31 23:57:00,
2013-05-31 20:02:00,80.9,63.4,30.05,NW,307,0.0,0.0,55,-99.99,,,-99.99,VWS V14.01,2013-06-01 00:02:00,
2013-05-31 20:07:00,80.7,62.2,30.05,NW,307,0.0,0.0,53,-99.99,,,-99.99,VWS V14.01,2013-06-01 00:07:00,
2013-05-31 20:12:00,80.4,62.6,30.05,NW,307,0.0,0.0,55,-99.99,,,-99.99,VWS V14.01,2013-06-01 00:12:00,
2013-05-31 20:17:00,80.1,62.4,30.05,NW,307,0.0,0.0,55,-99.99,,,-99.99,VWS V14.01,2013-06-01 00:17:00,
2013-05-31 20:22:00,79.9,62.6,30.05,NW,307,0.0,0.0,56,-99.99,,,-99.99,VWS V14.01,2013-06-01 00:22:00,
2013-05-31 20:27:00,79.5,62.2,30.05,NW,307,0.0,0.0,56,-99.99,,,-99.99,VWS V14.01,2013-06-01 00:27:00,
2013-05-31 20:32:00,79.3,62.9,30.04,NW,307,0.0,0.0,57,-99.99,,,-99.99,VWS V14.01,2013-06-01 00:32:00,
2013-05-31 20:37:00,78.8,62.7,30.04,NW,307,0.0,0.0,58,-99.99,,,-99.99,VWS V14.01,2013-06-01 00:37:00,
2013-05-31 20:42:00,78.3,62.4,30.04,NW,307,0.0,0.0,58,-99.99,,,-99.99,VWS V14.01,2013-06-01 00:42:00,
2013-05-31 20:47:00,77.9,62.5,30.04,NW,307,0.0,0.0,59,-99.99,,,-99.99,VWS V14.01,2013-06-01 00:47:00,
2013-05-31 20:52:00,77.9,62.6,30.04,NW,307,0.0,0.0,59,-99.99,,,-99.99,VWS V14.01,2013-06-01 00:52:00,
2013-05-31 20:57:00,77.6,62.3,30.04,NW,307,0.0,0.0,59,-99.99,,,-99.99,VWS V14.01,2013-06-01 00:57:00,
2013-05-31 21:02:00,77.4,62.5,30.04,NW,307,0.0,0.0,60,-99.99,,,-99.99,VWS V14.01,2013-06-01 01:02:00,
2013-05-31 21:07:00,77.3,62.6,30.05,NW,307,0.0,0.0,61,-99.99,,,-99.99,VWS V14.01,2013-06-01 01:07:00,
2013-05-31 21:12:00,77.0,63.2,30.05,NW,307,0.0,0.0,62,-99.99,,,-99.99,VWS V14.01,2013-06-01 01:12:00,
2013-05-31 21:17:00,76.5,63.1,30.05,NW,307,0.0,0.0,63,-99.99,,,-99.99,VWS V14.01,2013-06-01 01:17:00,
2013-05-31 21:22:00,75.8,62.5,30.05,NW,307,0.0,0.0,64,-99.99,,,-99.99,VWS V14.01,2013-06-01 01:22:00,
2013-05-31 21:27:00,75.5,62.4,30.05,NW,307,0.0,0.0,64,-99.99,,,-99.99,VWS V14.01,2013-06-01 01:27:00,
2013-05-31 21:32:00,75.0,62.3,30.05,NW,307,0.0,0.0,65,-99.99,,,-99.99,VWS V14.01,2013-06-01 01:32:00,
2013-05-31 21:37:00,74.6,62.1,30.05,NW,307,0.0,0.0,65,-99.99,,,-99.99,VWS V14.01,2013-06-01 01:37:00,
2013-05-31 21:42:00,74.3,61.9,30.05,NW,307,0.0,0.0,65,-99.99,,,-99.99,VWS V14.01,2013-06-01 01:42:00,
2013-05-31 21:47:00,74.2,62.5,30.05,NW,307,0.0,0.0,67,-99.99,,,-99.99,VWS V14.01,2013-06-01 01:47:00,
2013-05-31 21:52:00,73.9,62.5,30.05,NW,307,0.0,0.0,68,-99.99,,,-99.99,VWS V14.01,2013-06-01 01:52:00,
2013-05-31 21:57:00,73.8,62.6,30.05,NW,307,0.0,0.0,68,-99.99,,,-99.99,VWS V14.01,2013-06-01 01:57:00,
2013-05-31 22:02:00,73.5,62.3,30.06,NW,307,0.0,0.0,68,-99.99,,,-99.99,VWS V14.01,2013-06-01 02:02:00,